Rochester, NH

10:58 PM EDT on April 27, 2017 (GMT -0400)
Skyhaven

Weather History for KDAW - December, 2013

Change the Weather History Date:

Saturday, December 21, 2013

  Actual Average (KPSM) Record (KPSM)
Temperature  
Mean Temperature 41 °F -  
Max Temperature 48 °F 36 °F 59 °F (1988)
Min Temperature 34 °F 21 °F -15 °F (1980)
Degree Days  
Heating Degree Days 24    
Moisture  
Dew Point 37 °F    
Average Humidity 90    
Maximum Humidity 100    
Minimum Humidity 66    
Precipitation  
Precipitation 0.01 in - - ()
Sea Level Pressure  
Sea Level Pressure 29.88 in    
Wind  
Wind Speed 1 mph (NW)    
Max Wind Speed 7 mph    
Max Gust Speed -    
Visibility 3 miles    
Events Fog , Rain    
Averages and records for this station are not official NWS values.
T = Trace of Precipitation, MM = Missing Value Source: NWS Daily Summary

Daily Weather History Graph

Daily Weather History Graph

Search for Another Location

Airport or City:

Trip Planner

Search our weather history database for the weather conditions in past years. The results will help you decide how hot, cold, wet, or windy it might be!

Date:

Astronomy

Dec. 21, 2013 Rise Set
Actual Time 7:12 AM EST 4:11 PM EST
Civil Twilight 6:40 AM EST 4:43 PM EST
Nautical Twilight 6:04 AM EST 5:19 PM EST
Astronomical Twilight 5:29 AM EST 5:54 PM EST
Moon 8:31 PM EST (12/21) 9:31 AM EST (12/21)
Length of Visible Light 10h 03m
Length of Day
8h 58m
Waning Gibbous, 84% of the Moon is Illuminated
Dec 21
Waning Gibbous
Dec 25
Last Quarter
Jan 1
New
Jan 7
First Quarter
Jan 15
Full

Hourly Weather History & Observations

Time (EST) Temp. Windchill Dew Point Humidity Pressure Visibility Wind Dir Wind Speed Gust Speed Precip Events Conditions
12:51 AM 37.0 °F - 33.1 °F 86% 29.91 in 6.0 mi Calm Calm - 0.00 in Rain Light Rain
1:51 AM 37.0 °F - 34.0 °F 89% 29.90 in 6.0 mi Calm Calm - 0.00 in   Overcast
2:51 AM 37.0 °F - 34.0 °F 89% 29.89 in 7.0 mi Calm Calm - N/A   Overcast
3:51 AM 35.1 °F 32.2 °F 33.1 °F 92% 29.88 in 4.0 mi NNW 3.5 mph - N/A   Overcast
4:02 AM 35.1 °F - 34.0 °F 96% 29.89 in 2.5 mi Calm Calm - N/A   Overcast
4:12 AM 35.1 °F 32.2 °F 33.1 °F 92% 29.90 in 3.0 mi NNW 3.5 mph - N/A   Overcast
4:51 AM 34.0 °F 28.8 °F 32.0 °F 92% 29.89 in 3.0 mi NNW 5.8 mph - N/A   Scattered Clouds
4:58 AM 35.1 °F 29.3 °F 33.1 °F 92% 29.90 in 2.5 mi NW 6.9 mph - N/A   Scattered Clouds
5:07 AM 35.1 °F 30.1 °F 33.1 °F 92% 29.90 in 3.0 mi NW 5.8 mph - N/A   Mostly Cloudy
5:51 AM 36.0 °F - 33.1 °F 89% 29.89 in 4.0 mi Calm Calm - N/A   Overcast
6:44 AM 35.1 °F - 33.1 °F 92% 29.91 in 2.5 mi Calm Calm - N/A   Mostly Cloudy
6:51 AM 35.1 °F - 33.1 °F 92% 29.90 in 4.0 mi Calm Calm - N/A   Overcast
7:22 AM 34.0 °F - 33.1 °F 96% 29.90 in 2.0 mi Calm Calm - N/A   Partly Cloudy
7:51 AM 35.1 °F - 33.1 °F 92% 29.91 in 2.0 mi Calm Calm - N/A   Clear
8:16 AM 35.1 °F - 33.1 °F 92% 29.92 in 3.0 mi Calm Calm - N/A   Clear
8:51 AM 36.0 °F 33.3 °F 33.1 °F 89% 29.91 in 4.0 mi South 3.5 mph - N/A   Partly Cloudy
9:51 AM 37.0 °F - 34.0 °F 89% 29.92 in 5.0 mi Calm Calm - N/A   Mostly Cloudy
10:51 AM 37.9 °F 35.5 °F 34.0 °F 86% 29.90 in 5.0 mi SSE 3.5 mph - N/A   Overcast
11:51 AM 42.1 °F - 36.0 °F 79% 29.86 in 8.0 mi Calm Calm - N/A   Mostly Cloudy
12:51 PM 46.9 °F - 37.0 °F 68% 29.83 in 10.0 mi South 3.5 mph - N/A   Clear
1:51 PM 48.0 °F - 37.0 °F 66% 29.83 in 10.0 mi Calm Calm - N/A   Overcast
2:51 PM 48.9 °F - 37.9 °F 66% 29.84 in 10.0 mi Calm Calm - 0.00 in Rain Light Rain
3:51 PM 48.0 °F - 37.9 °F 68% 29.84 in 3.0 mi Calm Calm - 0.00 in   Haze
4:51 PM 44.1 °F 42.5 °F 37.0 °F 76% 29.85 in 9.0 mi NNW 3.5 mph - N/A   Overcast
5:51 PM 43.0 °F 41.3 °F 39.0 °F 86% 29.87 in 5.0 mi NNW 3.5 mph - 0.00 in Rain Light Rain
6:19 PM 42.1 °F 39.2 °F 39.9 °F 92% 29.88 in 2.5 mi NW 4.6 mph - 0.01 in   Overcast
6:39 PM 41.0 °F 38.0 °F 39.0 °F 93% 29.88 in 0.8 mi NNW 4.6 mph - 0.01 in Rain Light Rain
6:51 PM 42.1 °F - 39.9 °F 92% 29.87 in 1.0 mi Calm Calm - 0.01 in Rain Light Rain
7:01 PM 43.0 °F - 42.1 °F 97% 29.87 in 2.5 mi Calm Calm - 0.00 in Rain Light Rain
7:25 PM 43.0 °F - 41.0 °F 93% 29.87 in 1.8 mi Calm Calm - 0.00 in Rain Light Rain
7:45 PM 44.6 °F - 42.8 °F 93% 29.88 in 3.0 mi Calm Calm - 0.00 in Rain Light Rain
7:46 PM 44.1 °F - 42.1 °F 93% 29.88 in 3.0 mi Calm Calm - 0.00 in Rain Light Rain
8:09 PM 43.0 °F - 42.1 °F 97% 29.88 in 1.2 mi Calm Calm - 0.00 in   Overcast
8:17 PM 41.0 °F - 39.9 °F 96% 29.88 in 0.5 mi Calm Calm - 0.00 in Fog Fog
8:19 PM 42.1 °F 40.2 °F 39.9 °F 92% 29.88 in 0.2 mi NNW 3.5 mph - 0.00 in Fog Fog
8:40 PM 41.0 °F 39.0 °F 39.9 °F 96% 29.89 in 0.5 mi NW 3.5 mph - 0.00 in Fog Fog
8:45 PM 42.8 °F - 41.0 °F 93% 29.88 in 1.0 mi Calm Calm - 0.00 in   Overcast
8:51 PM 43.0 °F - 42.1 °F 97% 29.88 in 2.5 mi Calm Calm - 0.00 in   Overcast
9:00 PM 43.0 °F - 41.0 °F 93% 29.88 in 1.2 mi Calm Calm - N/A   Overcast
9:12 PM 42.1 °F - 39.9 °F 92% 29.88 in 0.2 mi Calm Calm - N/A Fog Fog
9:29 PM 43.0 °F - 41.0 °F 93% 29.89 in 1.0 mi Calm Calm - N/A   Overcast
9:45 PM 42.8 °F - 39.2 °F 87% 29.88 in 0.2 mi Calm Calm - N/A Fog Fog
9:46 PM 42.1 °F - 39.9 °F 92% 29.88 in 0.2 mi Calm Calm - N/A Fog Fog
10:33 PM 42.1 °F - 41.0 °F 96% 29.89 in 1.0 mi Calm Calm - N/A   Overcast
10:43 PM 43.0 °F - 42.1 °F 97% 29.88 in 2.5 mi Calm Calm - N/A   Overcast
10:51 PM 43.0 °F - 42.1 °F 97% 29.89 in 1.8 mi Calm Calm - N/A   Overcast
11:05 PM 39.9 °F 37.8 °F 39.9 °F 100% 29.88 in 0.2 mi North 3.5 mph - N/A Fog Fog
11:51 PM 42.1 °F - 41.0 °F 96% 29.89 in 0.5 mi Calm Calm - N/A Fog Fog